Indianapolis, IN

11:42 AM EDT on October 23, 2017 (GMT -0400)
Indianapolis Terry

Weather History for KTYQ - December, 2012

Change the Weather History Date:

Sunday, December 2, 2012

  Actual Average (KEYE) Record (KEYE)
Temperature  
Mean Temperature 55 °F -  
Max Temperature 61 °F 44 °F 62 °F (2012)
Min Temperature 49 °F 30 °F 14 °F (2005)
Degree Days  
Heating Degree Days 10    
Growing Degree Days 5 (Base 50)    
Moisture  
Dew Point 50 °F    
Average Humidity 79    
Maximum Humidity 91    
Minimum Humidity 53    
Precipitation  
Precipitation 0.12 in - - ()
Sea Level Pressure  
Sea Level Pressure 30.04 in    
Wind  
Wind Speed 12 mph (SSW)    
Max Wind Speed 18 mph    
Max Gust Speed 26 mph    
Visibility 8 miles    
Events Fog , Rain    
Averages and records for this station are not official NWS values.
T = Trace of Precipitation, MM = Missing Value Source: NWS Daily Summary

Daily Weather History Graph

Daily Weather History Graph

Search for Another Location

Airport or City:

Trip Planner

Search our weather history database for the weather conditions in past years. The results will help you decide how hot, cold, wet, or windy it might be!

Date:

Astronomy

Dec. 02, 2012 Rise Set
Actual Time 7:49 AM EST 5:19 PM EST
Civil Twilight 7:19 AM EST 5:50 PM EST
Nautical Twilight 6:45 AM EST 6:23 PM EST
Astronomical Twilight 6:12 AM EST 6:56 PM EST
Moon 9:06 PM EST (12/2) 10:38 AM EST (12/2)
Length of Visible Light 10h 30m
Length of Day
9h 30m
Waning Gibbous, 86% of the Moon is Illuminated
Dec 2
Waning Gibbous
Dec 6
Last Quarter
Dec 13
New
Dec 20
First Quarter
Dec 28
Full

Hourly Weather History & Observations

Time (EST) Temp. Dew Point Humidity Pressure Visibility Wind Dir Wind Speed Gust Speed Precip Events Conditions
12:15 AM 58.5 °F 41.2 °F 53% 30.05 in 10.0 mi South 13.8 mph 23.0 mph N/A   Scattered Clouds
12:35 AM 58.6 °F 41.4 °F 53% 30.05 in 10.0 mi South 18.4 mph 23.0 mph N/A   Scattered Clouds
12:55 AM 58.6 °F 41.9 °F 54% 30.04 in 10.0 mi South 13.8 mph - N/A   Scattered Clouds
1:15 AM 58.8 °F 42.4 °F 55% 30.04 in 10.0 mi South 12.7 mph 18.4 mph N/A   Mostly Cloudy
1:35 AM 58.8 °F 43.0 °F 56% 30.03 in 10.0 mi South 13.8 mph 18.4 mph N/A   Overcast
1:55 AM 58.8 °F 43.7 °F 57% 30.03 in 10.0 mi South 12.7 mph - N/A   Overcast
2:15 AM 59.0 °F 44.1 °F 58% 30.02 in 10.0 mi South 12.7 mph - N/A   Overcast
2:55 AM 59.4 °F 45.1 °F 59% 30.02 in 10.0 mi SSW 15.0 mph 20.7 mph N/A   Overcast
3:15 AM 59.4 °F 45.9 °F 61% 30.01 in 10.0 mi South 12.7 mph 20.7 mph N/A Rain Rain
3:35 AM 57.6 °F 47.8 °F 70% 30.00 in 10.0 mi South 12.7 mph 18.4 mph 0.01 in Rain Light Rain
3:55 AM 57.6 °F 48.2 °F 71% 30.00 in 10.0 mi South 10.4 mph 16.1 mph 0.01 in   Overcast
4:15 AM 58.1 °F 47.8 °F 69% 29.99 in 10.0 mi South 12.7 mph 18.4 mph N/A   Overcast
4:35 AM 59.0 °F 47.7 °F 66% 29.99 in 10.0 mi SSW 16.1 mph 23.0 mph N/A Rain Rain
4:55 AM 57.6 °F 49.1 °F 73% 30.00 in 7.0 mi SW 18.4 mph 26.5 mph 0.03 in Rain Heavy Rain
5:15 AM 56.1 °F 50.0 °F 80% 29.99 in 7.0 mi SSW 13.8 mph 21.9 mph 0.04 in Rain Rain
5:35 AM 55.6 °F 50.5 °F 83% 29.99 in 7.0 mi SSW 12.7 mph - 0.06 in Rain Light Rain
5:55 AM 55.2 °F 50.5 °F 84% 29.99 in 7.0 mi SSW 12.7 mph 20.7 mph 0.07 in Rain Light Rain
6:15 AM 55.4 °F 50.9 °F 85% 29.99 in 10.0 mi SSW 15.0 mph 20.7 mph N/A   Drizzle
6:35 AM 55.4 °F 50.5 °F 84% 29.99 in 7.0 mi SSW 13.8 mph 20.7 mph 0.01 in Rain Light Rain
6:55 AM 55.4 °F 50.7 °F 84% 29.99 in 10.0 mi SSW 13.8 mph 19.6 mph 0.01 in   Overcast
7:15 AM 55.6 °F 50.5 °F 83% 30.00 in 10.0 mi SSW 11.5 mph 21.9 mph N/A   Overcast
7:35 AM 55.6 °F 50.5 °F 83% 30.01 in 10.0 mi SSW 15.0 mph - N/A   Overcast
7:55 AM 55.8 °F 50.7 °F 83% 30.01 in 10.0 mi SSW 13.8 mph 20.7 mph N/A   Overcast
8:15 AM 55.9 °F 50.5 °F 82% 30.02 in 10.0 mi SSW 13.8 mph - N/A   Overcast
8:35 AM 55.9 °F 50.4 °F 82% 30.02 in 10.0 mi SW 13.8 mph 18.4 mph N/A   Overcast
8:55 AM 56.3 °F 50.5 °F 81% 30.03 in 10.0 mi SW 12.7 mph 18.4 mph N/A   Overcast
9:15 AM 56.5 °F 50.5 °F 80% 30.03 in 10.0 mi SSW 12.7 mph 17.3 mph N/A   Overcast
9:35 AM 56.7 °F 50.9 °F 81% 30.03 in 10.0 mi SW 13.8 mph 17.3 mph N/A   Overcast
9:55 AM 57.2 °F 51.1 °F 80% 30.04 in 10.0 mi SW 12.7 mph - N/A   Overcast
10:15 AM 57.4 °F 51.1 °F 79% 30.04 in 10.0 mi SW 10.4 mph - N/A   Overcast
10:35 AM 58.5 °F 52.0 °F 79% 30.04 in 10.0 mi SW 12.7 mph - N/A   Overcast
10:55 AM 59.4 °F 52.2 °F 77% 30.04 in 10.0 mi SW 12.7 mph 19.6 mph N/A   Mostly Cloudy
11:15 AM 59.9 °F 52.7 °F 77% 30.04 in 10.0 mi SW 13.8 mph 21.9 mph N/A   Overcast
11:35 AM 60.1 °F 52.7 °F 77% 30.04 in 10.0 mi SW 13.8 mph - N/A   Overcast
11:55 AM 60.8 °F 52.9 °F 75% 30.03 in 10.0 mi SW 16.1 mph 24.2 mph N/A   Overcast
12:15 PM 61.5 °F 53.8 °F 76% 30.03 in 10.0 mi SW 13.8 mph - N/A   Mostly Cloudy
12:35 PM 61.7 °F 54.0 °F 76% 30.03 in 10.0 mi SW 10.4 mph - N/A   Overcast
12:55 PM 61.0 °F 53.6 °F 77% 30.03 in 10.0 mi SW 11.5 mph 17.3 mph N/A   Overcast
1:15 PM 61.0 °F 53.8 °F 77% 30.03 in 10.0 mi SW 9.2 mph - N/A   Overcast
1:35 PM 60.8 °F 54.0 °F 78% 30.02 in 10.0 mi SW 8.1 mph - N/A   Overcast
1:55 PM 60.8 °F 54.0 °F 78% 30.02 in 10.0 mi SSW 8.1 mph - N/A   Overcast
2:15 PM 60.8 °F 54.1 °F 79% 30.02 in 10.0 mi SSW 6.9 mph - N/A   Overcast
2:35 PM 61.2 °F 54.5 °F 79% 30.03 in 10.0 mi SSW 9.2 mph - N/A   Overcast
2:55 PM 61.9 °F 54.7 °F 77% 30.03 in 10.0 mi SSW 8.1 mph - N/A   Mostly Cloudy
3:15 PM 61.7 °F 54.7 °F 78% 30.03 in 10.0 mi SSW 8.1 mph - N/A   Mostly Cloudy
3:35 PM 61.5 °F 54.9 °F 79% 30.03 in 10.0 mi SSW 9.2 mph - N/A   Overcast
3:55 PM 61.7 °F 54.7 °F 78% 30.04 in 10.0 mi SSW 9.2 mph - N/A   Overcast
4:15 PM 60.8 °F 54.7 °F 80% 30.04 in 10.0 mi SSW 5.8 mph - N/A   Scattered Clouds
4:55 PM 60.1 °F 54.5 °F 82% 30.04 in 10.0 mi SSW 9.2 mph - N/A   Scattered Clouds
5:15 PM 59.0 °F 53.8 °F 83% 30.05 in 10.0 mi SSW 5.8 mph - N/A   Clear
5:35 PM 58.1 °F 53.6 °F 85% 30.05 in 7.0 mi SSW 4.6 mph - N/A   Clear
5:55 PM 56.8 °F 52.5 °F 85% 30.06 in 7.0 mi SSW 3.5 mph - N/A   Clear
6:15 PM 55.2 °F 51.3 °F 87% 30.06 in 7.0 mi SSW 3.5 mph - N/A   Clear
6:35 PM 53.8 °F 50.2 °F 88% 30.06 in 4.0 mi South 3.5 mph - N/A   Mostly Cloudy
6:55 PM 54.5 °F 51.3 °F 89% 30.07 in 4.0 mi South 4.6 mph - N/A   Mostly Cloudy
7:15 PM 54.5 °F 51.4 °F 89% 30.07 in 3.0 mi South 5.8 mph - N/A   Overcast
7:35 PM 54.5 °F 51.3 °F 89% 30.08 in 2.0 mi South 5.8 mph - N/A   Overcast
7:55 PM 55.4 °F 52.3 °F 89% 30.08 in 3.0 mi South 5.8 mph - N/A   Overcast
8:15 PM 55.6 °F 52.7 °F 90% 30.09 in 3.0 mi South 4.6 mph - N/A   Overcast
8:35 PM 55.0 °F 52.2 °F 90% 30.10 in 2.5 mi South 3.5 mph - N/A   Mist
8:55 PM 53.6 °F 50.7 °F 90% 30.10 in 0.2 mi Calm Calm - N/A Fog Fog
9:15 PM 50.9 °F 48.2 °F 90% 30.11 in 0.2 mi Calm Calm - N/A Fog Fog
9:35 PM 50.9 °F 48.2 °F 90% 30.11 in 0.2 mi Calm Calm - N/A Fog Fog
9:55 PM 50.5 °F 47.8 °F 90% 30.11 in 0.2 mi South 3.5 mph - N/A Fog Fog
10:15 PM 49.1 °F 46.4 °F 90% 30.11 in 0.2 mi South 3.5 mph - N/A Fog Fog
10:35 PM 50.2 °F 47.5 °F 90% 30.11 in 0.2 mi South 4.6 mph - N/A Fog Fog
10:55 PM 51.4 °F 48.9 °F 91% 30.11 in 0.2 mi SSW 5.8 mph - N/A Fog Fog
11:15 PM 55.2 °F 52.5 °F 91% 30.10 in 0.2 mi SW 5.8 mph - N/A Fog Fog
11:35 PM 55.8 °F 53.1 °F 91% 30.10 in 0.5 mi South 3.5 mph - N/A Fog Fog
11:55 PM 55.9 °F 53.2 °F 91% 30.10 in 0.5 mi SSW 4.6 mph - N/A Fog Fog